Kauai Island Weather Center

Moon Phase Calendar



Online Cameras

 


      

Current Conditions in Wailua Homesteads
10/27/2020 5:14:26 AM

59°F
Feels Like 61
Rain
Humidity
100%
Pressure
29.91"
Wind
2.7 mph (NW)
Dew Point
59°F
UV Index
8/10 (Very High)
Visibility
6 mi

Hourly Forecast

Date & Time Tue, Oct 27
5:00 AM
Tue, Oct 27
6:00 AM
Tue, Oct 27
7:00 AM
Tue, Oct 27
8:00 AM
Tue, Oct 27
9:00 AM
Tue, Oct 27
10:00 AM
Tue, Oct 27
11:00 AM
Tue, Oct 27
12:00 PM
Tue, Oct 27
1:00 PM
Tue, Oct 27
2:00 PM
Tue, Oct 27
3:00 PM
Tue, Oct 27
4:00 PM
Tue, Oct 27
5:00 PM
Tue, Oct 27
6:00 PM
Tue, Oct 27
7:00 PM
Tue, Oct 27
8:00 PM
Tue, Oct 27
9:00 PM
Tue, Oct 27
10:00 PM
Tue, Oct 27
11:00 PM
Wed, Oct 28
12:00 AM
Wed, Oct 28
1:00 AM
Wed, Oct 28
2:00 AM
Wed, Oct 28
3:00 AM
Wed, Oct 28
4:00 AM
Wed, Oct 28
5:00 AM
Wed, Oct 28
6:00 AM
Wed, Oct 28
7:00 AM
Wed, Oct 28
8:00 AM
Wed, Oct 28
9:00 AM
Wed, Oct 28
10:00 AM
Wed, Oct 28
11:00 AM
Wed, Oct 28
12:00 PM
Wed, Oct 28
1:00 PM
Wed, Oct 28
2:00 PM
Wed, Oct 28
3:00 PM
Wed, Oct 28
4:00 PM
Wed, Oct 28
5:00 PM
Wed, Oct 28
6:00 PM
Wed, Oct 28
7:00 PM
Wed, Oct 28
8:00 PM
Wed, Oct 28
9:00 PM
Wed, Oct 28
10:00 PM
Wed, Oct 28
11:00 PM
Thu, Oct 29
12:00 AM
Thu, Oct 29
1:00 AM
Thu, Oct 29
2:00 AM
Thu, Oct 29
3:00 AM
Thu, Oct 29
4:00 AM
Condition
Rain

Rain

Clouds

Clouds

Clouds

Clouds

Clouds

Clouds

Rain

Rain

Rain

Rain

Rain

Rain

Rain

Rain

Clouds

Rain

Rain

Rain

Rain

Rain

Rain

Rain

Rain

Rain

Rain

Rain

Rain

Rain

Rain

Rain

Rain

Rain

Rain

Rain

Rain

Clouds

Clouds

Clouds

Clouds

Clouds

Clouds

Clouds

Clouds

Clouds

Clear

Clear
Temperature 59°F59°F59°F61°F63°F65°F66°F67°F66°F66°F65°F64°F63°F61°F61°F60°F60°F60°F59°F59°F59°F58°F58°F58°F58°F58°F58°F60°F62°F63°F64°F64°F64°F64°F63°F61°F61°F59°F58°F58°F58°F57°F57°F56°F56°F55°F55°F54°F
Feels Like 61°F61°F62°F64°F66°F68°F69°F70°F69°F69°F68°F67°F66°F64°F63°F63°F63°F62°F60°F61°F61°F59°F59°F59°F58°F58°F58°F62°F65°F66°F66°F66°F67°F66°F65°F62°F62°F61°F59°F58°F58°F57°F57°F56°F56°F55°F54°F53°F
Cloudiness 100%100%100%100%100%99%99%99%94%90%73%62%71%72%72%70%82%58%49%52%47%39%18%31%27%23%19%18%21%24%35%40%44%47%52%64%55%45%37%36%46%44%46%49%48%44%0%0%
Visibility 6 mi6 mi6 mi6 mi6 mi6 mi6 mi6 mi4 mi6 mi6 mi4 mi3 mi6 mi6 mi6 mi6 mi6 mi6 mi6 mi6 mi6 mi6 mi6 mi6 mi6 mi6 mi6 mi6 mi6 mi6 mi6 mi6 mi6 mi6 mi6 mi6 mi6 mi6 mi6 mi6 mi6 mi6 mi6 mi6 mi6 mi6 mi6 mi
Precipitation 32%32%8%8%1%1%1%1%30%21%65%78%97%100%100%100%45%49%59%77%89%89%66%66%66%69%73%81%92%92%92%93%89%92%62%53%49%46%46%42%0%0%4%4%0%0%0%0%
Humidity 100%100%100%100%99%91%86%83%89%88%92%96%100%100%100%100%100%100%100%100%100%100%100%100%100%100%100%100%100%97%96%96%97%98%100%100%100%100%100%100%100%100%100%100%100%100%100%100%
Dew Point 59°F59°F59°F61°F62°F62°F62°F62°F63°F63°F63°F63°F63°F63°F63°F62°F62°F62°F61°F61°F61°F61°F61°F62°F62°F61°F61°F62°F62°F63°F63°F63°F63°F63°F63°F62°F62°F62°F61°F61°F61°F60°F59°F59°F58°F57°F56°F55°F
Pressure 29.91"29.91"29.94"29.97"29.97"30"29.97"29.97"29.94"29.91"29.88"29.88"29.91"29.94"29.94"29.94"29.97"29.97"29.97"29.97"29.94"29.91"29.88"29.88"29.88"29.88"29.91"29.91"29.91"29.91"29.91"29.91"29.88"29.85"29.83"29.83"29.85"29.88"29.88"29.91"29.91"29.91"29.91"29.88"29.88"29.88"29.85"29.85"
Wind Speed 2.7 mph2.3 mph1.5 mph1.6 mph1.3 mph0.9 mph1.6 mph2.1 mph3.2 mph3.2 mph2.2 mph2.1 mph2.8 mph2.8 mph2.1 mph1.2 mph1.4 mph2.3 mph3 mph2.6 mph2.2 mph2.7 mph3.4 mph3.9 mph3.7 mph3.8 mph3.5 mph2.6 mph2.4 mph2.9 mph3.1 mph3.4 mph3.6 mph4 mph4.2 mph4.6 mph4.4 mph3 mph3.3 mph3.9 mph3.8 mph3.8 mph3.7 mph3.5 mph3.5 mph3.6 mph4.2 mph4.6 mph
Wind
Direction
304°
NW
310°
NW
288°
WNW
236°
SW
293°
WNW
237°
WSW
214°
SW
234°
SW
255°
WSW
281°
W
270°
W
258°
WSW
250°
WSW
245°
WSW
272°
W
241°
WSW
253°
WSW
290°
WNW
303°
WNW
286°
WNW
266°
W
249°
WSW
266°
W
276°
W
284°
WNW
304°
NW
326°
NW
318°
NW
296°
WNW
294°
WNW
306°
NW
318°
NW
346°
NNW
358°
N
356°
N
349°
N
332°
NNW
310°
NW
308°
NW
306°
NW
315°
NW
322°
NW
312°
NW
314°
NW
312°
NW
318°
NW
319°
NW
312°
NW

Daily Forecast

Date High Low Precip. Humidity
Today
Oct 27

Rain
66 °F
59 °F
100%
89%
Wednesday
Oct 28

Rain
64 °F
57 °F
92%
96%
Thursday
Oct 29

Clear
65 °F
54 °F
29%
73%
Friday
Oct 30

Rain
66 °F
56 °F
86%
83%
Saturday
Oct 31

Clouds
65 °F
55 °F
14%
77%
Sunday
Nov 1

Rain
65 °F
57 °F
24%
85%
Monday
Nov 2

Rain
66 °F
56 °F
36%
85%
Tuesday
Nov 3

Clouds
66 °F
56 °F
16%
82%
Wednesday
Nov 4

Clouds
67 °F
57 °F
2%
70%
Thursday
Nov 5

Rain
61 °F
54 °F
60%
100%
Friday
Nov 6

Clouds
63 °F
52 °F
4%
81%
Saturday
Nov 7

Rain
63 °F
54 °F
36%
81%
Sunday
Nov 8

Rain
63 °F
56 °F
42%
96%
Monday
Nov 9

Rain
67 °F
57 °F
69%
90%
Tuesday
Nov 10

Rain
66 °F
57 °F
39%
92%
Wednesday
Nov 11

Rain
67 °F
56 °F
26%
78%


Temperature 8-14 Day Outlook



Precipitation 8-14 Day Outlook




Quick Links
Kauai Island News
Kauai Island Photos
Kauai Island Videos




About Us
Contact Us
Site Map
Search Site
Advertise With Us
   
Kauai.USCoast.info
THE KAUAI ISLAND WEBSITE

Copyright 2020, Coastal Town
Privacy    |    Legal